Regional Weather Roundup
Issued by NWS

Home | Current Version | Previous Version | Text Only | Print | Product List | Glossary On
Versions: 1 2 3 4 5 6 7 8 9 10 11 12 13 14 15 16 17 18 19 20 21 22 23 24 25 26 27 28 29 30 31 32 33 34 35 36 37 38 39 40 41 42 43 44 45 46 47 48 49 50
000
ASCA44 KEWX 261720
RWRMX

LATIN AMERICA AND CARIBBEAN REGIONAL WEATHER ROUNDUP
NATIONAL WEATHER SERVICE AUSTIN/SAN ANTONIO TX
1200 PM CDT THU MAY 26 2016

NOTE: "FAIR" INDICATED FEW OR NO CLOUDS BELOW 12,000 FEET WITH NO
SIGNIFICANT WEATHER AND/OR OBSTRUCTIONS TO VISIBILITY.

BAJA CALIFORNIA

CITY           SKY/WX    TMP DP  RH WIND       PRES   REMARKS
LORETO         SUNNY     77  61  57 NE14      29.92S
LA PAZ         MOSUNNY   86  25  10 NW3       29.95F
MEXICALI       SUNNY     75  37  25 NW6       29.95S
S.J. DEL CABO  PTSUNNY   91  52  25 CALM      29.91S
TIJUANA        CLOUDY    63  48  59 W6        30.10F

NORTHWESTERN MEXICO

CITY           SKY/WX    TMP DP  RH WIND       PRES   REMARKS
CULIACAN       CLOUDY    84  68  58 SW6       29.90S
DURANGO        CLOUDY    79  39  24 E3        30.26F
GUAYMAS        SUNNY     81  55  41 N12       29.87F
HERMOSILLO     SUNNY     77  43  29 MISG      29.96F
CD. JUAREZ     MOSUNNY   79  39  24 W12       29.92F
LOS MOCHIS     PTSUNNY   86  46  25 CALM      29.90S
OBREGON        SUNNY     86  43  22 W6        29.88S

NORTHEASTERN MEXICO

CITY           SKY/WX    TMP DP  RH WIND       PRES   REMARKS
CHIHUAHUA      MOSUNNY   82  41  23 N12G26    30.03F
MATAMOROS      PTSUNNY   88  75  66 S13       29.94S HX  97
MONCLOVA       PTSUNNY   91  57  31 S7        29.92F HX  90
MONTERREY      PTSUNNY   86  70  58 SE6       29.91F HX  90
NUEVO LAREDO   PTSUNNY   88  75  66 S14       29.86F HX  97
PIEDRAS NEGRAS MOSUNNY   86  72  62 SE12      29.86F HX  92
REYNOSA        CLOUDY    84  73  70 S9G21     29.91F HX  91
SALTILLO       MOSUNNY   82  63  51 S7        30.20F
TORREON        PTSUNNY   90  54  29 E10       30.06F
CD. VICTORIA   CLOUDY    77  70  78 SE13      29.96F

WESTERN MEXICO

CITY           SKY/WX    TMP DP  RH WIND       PRES   REMARKS
AGUASCALIENTES PTSUNNY   77  52  41 E7        30.28F
COLIMA         PTSUNNY   81  61  50 CALM      30.03F
DEL BAJIO      PTSUNNY   82  54  36 SW9       30.32F
GUADALAJARA    MOSUNNY   82  37  20 N6        30.19F
MANZANILLO     MOSUNNY   84  72  65 SW12      29.88S
MAZATLAN       PTSUNNY   88  73  62 SW3       29.88F HX  96
P. VALLARTA    PTSUNNY   82  72  69 W9        29.89F
URUAPAN        MOSUNNY   79  64  61 CALM      30.21F
ZACATECAS      MOSUNNY   75  52  43 E6        30.32F

CENTRAL MEXICO

CITY           SKY/WX    TMP DP  RH WIND       PRES   REMARKS
CUERNAVACA     SUNNY     84  54  34 S5        30.17S
MEXICO CITY    MOSUNNY   73  52  46 NE7       30.38F
MORELIA        MOSUNNY   77  59  53 NW9       30.27F
POZA RICA      CLOUDY    86  79  79 E7        30.00F HX  99
PUEBLA         SUNNY     73  39  29 CALM      30.39F
QUERETARO      PTSUNNY   77  59  53 E10       30.34F
S. LUIS POTOSI CLOUDY    75  55  50 NE9       30.28F
TAMPICO        CLOUDY    84  77  79 SE6       29.96F HX  94
TOLUCA         MOSUNNY   73  48  40 NW5       30.46F

SOUTHERN MEXICO

CITY           SKY/WX    TMP DP  RH WIND       PRES   REMARKS
ACAPULCO       PTSUNNY   88  77  70 W7        29.88S HX 100
B. DE HUATULCO MOSUNNY   90  75  62 E12       29.95S HX 100
OAXACA         PTSUNNY   79  52  38 CALM      30.25F
P. ESCONDIDO   SUNNY     84  79  84 W12       29.97F HX  96
VERACRUZ       MOSUNNY   90  77  66 SE9       29.93F HX 102
ZIHUATANEJO    MOSUNNY   90  77  66 SW7       29.89S HX 102

YUCATAN PENINSULA

CITY           SKY/WX    TMP DP  RH WIND       PRES   REMARKS
CAMPECHE       MOSUNNY   95  72  46 E12       29.92F HX 103
CANCUN         PTSUNNY   88  75  66 E12       30.02F HX  97
CHETUMAL       MOSUNNY   88  79  74 E15       29.98F HX 102
CD. DEL CARMEN MOSUNNY   93  72  49 SE10      29.93F HX 100
COZUMEL        PTSUNNY   84  75  74 E15       30.01F HX  92
MERIDA         PTSUNNY   95  70  43 SE13      29.97F HX 101
MINATITLAN     MOSUNNY   90  77  66 N12       29.86F HX 102
TAPACHULA      MOSUNNY   90  81  74 W7        29.85F HX 108
TUX. GUTIERREZ MOSUNNY   90  64  43 NE2       29.96F HX  91
VILLAHERMOSA   SUNNY     93  75  55 E8        29.92F HX 104

CENTRAL AMERICA

CITY           SKY/WX    TMP DP  RH WIND       PRES   REMARKS
BELIZE CITY    MOSUNNY   90  77  66 E12       29.98F HX 102
MANAGUA        PTSUNNY   93  75  55 E14       29.83S HX 104

CARIBBEAN

CITY           SKY/WX    TMP DP  RH WIND       PRES   REMARKS
ARUBA          MOSUNNY   88  75  66 E20       29.86F HX  97
CURACAO        MOSUNNY   86  73  66 E15       29.92S HX  93
KINGSTON       MOSUNNY   88  77  70 SE10      29.92F HX 100
NASSAU         MOSUNNY   84  73  70 NE13      30.07F HX  91
SAN JUAN       PTSUNNY   84  72  65 E17       29.97F
SANTO DOMINGO  PTSUNNY   84  75  74 SE7       29.94S HX  92
ST. CROIX      MOSUNNY   84  72  65 E12       29.98F
ST. KITTS      PTSUNNY   86  73  66 E10       29.97S HX  93
ST. MAARTEN    MOSUNNY   84  72  65 E10       29.97S
ST. THOMAS     PTSUNNY   84  73  70 SE14      29.97  HX  91

$$





USA.gov is the U.S. government's official web portal to all federal, state and local government web resources and services.